Weather in Obidimo

Russia / Tula Oblast     54°18′12″N   37°24′13″E
temp.,
°C
wind,
m/s
gust,
m/s
humid.,
%
clouds,
%
prec.,
mm/h
press.,
hPa
HPBL,
m
11 may, tue
tue1100:00+7nne5137630 0.0 1025373
03:00+6nne513865 0.0 1025296
06:00+7nne614855 0.0 1025368
09:00+12ne711745 0.0 1024498
12:00+16ne710687 0.0 1024874
15:00+19ene7106494 0.0 10231472
18:00+13se4891100 1.1 1025444
21:00+10se378913 1.1 1027173
12 may, wed
wed1200:00+8se23925 0.0 102755
03:00+7sse1188100 0.0 102710
06:00+8n228596 0.0 102749
09:00+8n3693100 0.4 1025178
12:00+12nne61392100 0.8 1019573
15:00+13e91793100 3.3 10171227
18:00+8s71290100 2.9 1019781
21:00+6se39942 2.9 1022276
13 may, thu
thu1300:00+7e5129213 0.0 1021285
03:00+7e51392100 0.0 1020330
06:00+8ese41390100 0.1 1020433
09:00+12se4782100 0.3 1019415
12:00+15sse3468100 0.0 10181088
15:00+18s3456100 0.1 10171476
18:00+16sse2371100 0.1 1016195
21:00+12se228870 0.1 101733
14 may, fri
fri1400:00+10sse239125 0.0 101749
03:00+9se229017 0.0 101822
06:00+11ese268780 0.0 1018131
09:00+16ese5878100 0.0 1017434
12:00+19se6971100 0.5 1016856
15:00+21se5870100 2.4 10151216
18:00+19se51079100 2.9 1013401
21:00+16se3593100 6.0 101295
15 may, sat
sat1500:00+15sse239440 0.3 101236
03:00+14sse41196100 0.8 1013269
06:00+15se3695100 0.3 1011164
09:00+18sse3580100 0.3 1011410
12:00+17wsw3688100 0.1 1011321
15:00+22ssw686457 0.4 10101373
18:00
21:00+15nne2290100 4.8 100941